Time,TemperatureF,DewpointF,PressureIn,WindDirection,WindDirectionDegrees,WindSpeedMPH,WindSpeedGustMPH,Humidity,HourlyPrecipIn,Conditions,Clouds,dailyrainin,SoftwareType,DateUTC
2013-08-05 00:01:00,83.3,77.2,29.99,West,273,4.0,7.0,82,0.00,,,0.04,meteohub,2013-08-05 04:01:00,
2013-08-05 00:02:00,83.3,77.2,29.99,West,273,4.0,7.0,82,0.00,,,0.04,meteohub,2013-08-05 04:02:00,
2013-08-05 00:07:00,83.3,77.2,29.99,West,273,3.0,6.0,82,0.00,,,0.00,meteohub,2013-08-05 04:07:00,
2013-08-05 00:13:00,83.1,76.6,29.99,West,273,4.0,6.0,81,0.00,,,0.00,meteohub,2013-08-05 04:13:00,
2013-08-05 00:18:00,83.1,76.6,29.99,West,273,2.0,6.0,81,0.00,,,0.00,meteohub,2013-08-05 04:18:00,
2013-08-05 00:23:00,83.3,76.5,29.99,West,273,3.0,6.0,80,0.00,,,0.00,meteohub,2013-08-05 04:23:00,
2013-08-05 00:28:00,83.3,76.5,29.99,West,273,3.0,7.0,80,0.00,,,0.00,meteohub,2013-08-05 04:28:00,
2013-08-05 00:33:00,83.5,77.0,29.99,West,273,2.0,7.0,81,0.00,,,0.00,meteohub,2013-08-05 04:33:00,
2013-08-05 00:38:00,83.3,76.8,29.99,West,273,5.0,7.0,81,0.00,,,0.00,meteohub,2013-08-05 04:38:00,
2013-08-05 00:44:00,83.5,77.4,29.99,West,273,2.0,6.0,82,0.00,,,0.00,meteohub,2013-08-05 04:44:00,
2013-08-05 00:49:00,83.5,77.4,29.98,West,273,6.0,6.0,82,0.00,,,0.00,meteohub,2013-08-05 04:49:00,
2013-08-05 00:54:00,83.5,77.4,29.99,West,273,6.0,6.0,82,0.00,,,0.00,meteohub,2013-08-05 04:54:00,
2013-08-05 00:59:00,83.5,77.0,29.98,West,273,4.0,6.0,81,0.00,,,0.00,meteohub,2013-08-05 04:59:00,
2013-08-05 01:04:00,83.5,77.0,29.98,West,273,1.0,6.0,81,0.00,,,0.00,meteohub,2013-08-05 05:04:00,
2013-08-05 01:09:00,83.5,77.0,29.98,West,273,3.0,7.0,81,0.00,,,0.00,meteohub,2013-08-05 05:09:00,
2013-08-05 01:14:00,83.5,77.0,29.98,West,273,5.0,7.0,81,0.00,,,0.00,meteohub,2013-08-05 05:14:00,
2013-08-05 01:19:00,83.3,76.8,29.99,West,273,1.0,7.0,81,0.00,,,0.00,meteohub,2013-08-05 05:19:00,
2013-08-05 01:25:00,83.3,76.8,29.98,West,273,1.0,6.0,81,0.00,,,0.00,meteohub,2013-08-05 05:25:00,
2013-08-05 01:30:00,83.3,76.8,29.98,West,273,1.0,6.0,81,0.00,,,0.00,meteohub,2013-08-05 05:30:00,
2013-08-05 01:35:00,83.3,77.2,29.98,West,273,1.0,7.0,82,0.00,,,0.00,meteohub,2013-08-05 05:35:00,
2013-08-05 01:40:00,83.5,77.4,29.98,West,273,4.0,7.0,82,0.00,,,0.00,meteohub,2013-08-05 05:40:00,
2013-08-05 01:45:00,83.5,77.4,29.98,West,273,1.0,7.0,82,0.00,,,0.00,meteohub,2013-08-05 05:45:00,
2013-08-05 01:50:00,83.5,77.4,29.98,West,273,2.0,7.0,82,0.00,,,0.00,meteohub,2013-08-05 05:50:00,
2013-08-05 01:55:00,83.3,77.2,29.97,West,273,1.0,7.0,82,0.00,,,0.00,meteohub,2013-08-05 05:55:00,
2013-08-05 02:00:00,83.3,77.2,29.97,West,273,1.0,5.0,82,0.00,,,0.00,meteohub,2013-08-05 06:00:00,
2013-08-05 02:05:00,83.1,77.4,29.97,West,273,1.0,4.0,83,0.00,,,0.00,meteohub,2013-08-05 06:05:00,
2013-08-05 02:11:00,83.1,77.4,29.97,West,273,2.0,4.0,83,0.00,,,0.00,meteohub,2013-08-05 06:11:00,
2013-08-05 02:16:00,83.1,77.4,29.97,West,273,2.0,5.0,83,0.00,,,0.00,meteohub,2013-08-05 06:16:00,
2013-08-05 02:21:00,83.1,77.4,29.96,West,273,1.0,6.0,83,0.00,,,0.00,meteohub,2013-08-05 06:21:00,
2013-08-05 02:26:00,83.1,77.0,29.96,West,274,3.0,6.0,82,0.00,,,0.00,meteohub,2013-08-05 06:26:00,
2013-08-05 02:31:00,83.3,77.2,29.96,West,274,4.0,8.0,82,0.00,,,0.00,meteohub,2013-08-05 06:31:00,
2013-08-05 02:36:00,83.1,77.0,29.96,West,274,4.0,8.0,82,0.00,,,0.00,meteohub,2013-08-05 06:36:00,
2013-08-05 02:41:00,83.1,77.0,29.96,West,272,2.0,8.0,82,0.00,,,0.00,meteohub,2013-08-05 06:41:00,
2013-08-05 02:47:00,83.1,77.0,29.96,West,272,4.0,8.0,82,0.00,,,0.00,meteohub,2013-08-05 06:47:00,
2013-08-05 02:52:00,83.1,77.0,29.96,West,271,4.0,8.0,82,0.00,,,0.00,meteohub,2013-08-05 06:52:00,
2013-08-05 02:56:00,83.1,77.4,29.95,West,271,2.0,7.0,83,0.00,,,0.00,meteohub,2013-08-05 06:56:00,
2013-08-05 03:02:00,83.1,77.4,29.95,West,271,2.0,7.0,83,0.00,,,0.00,meteohub,2013-08-05 07:02:00,
2013-08-05 03:07:00,83.1,77.0,29.95,West,271,5.0,5.0,82,0.00,,,0.00,meteohub,2013-08-05 07:07:00,
2013-08-05 03:12:00,83.1,77.0,29.95,West,271,4.0,7.0,82,0.00,,,0.00,meteohub,2013-08-05 07:12:00,
2013-08-05 03:17:00,83.1,77.0,29.95,West,271,1.0,7.0,82,0.00,,,0.00,meteohub,2013-08-05 07:17:00,
2013-08-05 03:22:00,83.1,77.0,29.95,West,271,6.0,7.0,82,0.00,,,0.00,meteohub,2013-08-05 07:22:00,
2013-08-05 03:27:00,83.1,76.6,29.95,West,271,2.0,6.0,81,0.00,,,0.00,meteohub,2013-08-05 07:27:00,
2013-08-05 03:32:00,82.9,76.8,29.95,West,271,3.0,6.0,82,0.00,,,0.00,meteohub,2013-08-05 07:32:00,
2013-08-05 03:38:00,82.9,76.8,29.94,West,271,4.0,6.0,82,0.00,,,0.00,meteohub,2013-08-05 07:38:00,
2013-08-05 03:43:00,82.8,76.6,29.94,West,271,4.0,6.0,82,0.00,,,0.00,meteohub,2013-08-05 07:43:00,
2013-08-05 03:48:00,82.8,76.6,29.94,West,271,2.0,6.0,82,0.00,,,0.00,meteohub,2013-08-05 07:48:00,
2013-08-05 03:53:00,82.6,76.8,29.94,West,271,0.0,5.0,83,0.00,,,0.00,meteohub,2013-08-05 07:53:00,
2013-08-05 03:58:00,82.6,76.8,29.94,West,271,1.0,4.0,83,0.00,,,0.00,meteohub,2013-08-05 07:58:00,
2013-08-05 04:03:00,82.6,76.8,29.94,West,271,2.0,5.0,83,0.00,,,0.00,meteohub,2013-08-05 08:03:00,
2013-08-05 04:08:00,82.6,76.8,29.95,West,271,3.0,5.0,83,0.00,,,0.00,meteohub,2013-08-05 08:08:00,
2013-08-05 04:13:00,82.6,76.8,29.94,West,271,1.0,5.0,83,0.00,,,0.00,meteohub,2013-08-05 08:13:00,
2013-08-05 04:18:00,82.6,76.8,29.94,West,271,0.0,4.0,83,0.00,,,0.00,meteohub,2013-08-05 08:18:00,
2013-08-05 04:24:00,82.8,77.0,29.94,West,271,1.0,5.0,83,0.00,,,0.00,meteohub,2013-08-05 08:24:00,
2013-08-05 04:29:00,82.8,77.0,29.94,West,271,2.0,5.0,83,0.00,,,0.00,meteohub,2013-08-05 08:29:00,
2013-08-05 04:34:00,82.8,77.0,29.94,West,271,1.0,5.0,83,0.00,,,0.00,meteohub,2013-08-05 08:34:00,
2013-08-05 04:39:00,82.8,77.0,29.94,West,271,4.0,5.0,83,0.00,,,0.00,meteohub,2013-08-05 08:39:00,
2013-08-05 04:45:00,82.8,77.0,29.94,West,271,2.0,6.0,83,0.00,,,0.00,meteohub,2013-08-05 08:45:00,
2013-08-05 04:50:00,82.9,77.2,29.94,West,271,2.0,6.0,83,0.00,,,0.00,meteohub,2013-08-05 08:50:00,
2013-08-05 04:55:00,82.9,77.2,29.94,West,271,2.0,6.0,83,0.00,,,0.00,meteohub,2013-08-05 08:55:00,
2013-08-05 05:00:00,82.9,76.8,29.94,West,271,2.0,6.0,82,0.00,,,0.00,meteohub,2013-08-05 09:00:00,
2013-08-05 05:06:00,83.1,77.0,29.94,West,271,2.0,7.0,82,0.00,,,0.00,meteohub,2013-08-05 09:06:00,
2013-08-05 05:10:00,83.1,76.6,29.94,West,271,2.0,7.0,81,0.00,,,0.00,meteohub,2013-08-05 09:10:00,
2013-08-05 05:17:00,83.1,76.6,29.94,West,271,1.0,7.0,81,0.00,,,0.00,meteohub,2013-08-05 09:17:00,
2013-08-05 05:22:00,82.9,76.5,29.94,West,272,1.0,5.0,81,0.00,,,0.00,meteohub,2013-08-05 09:22:00,
2013-08-05 05:28:00,82.9,76.8,29.95,West,272,3.0,6.0,82,0.00,,,0.00,meteohub,2013-08-05 09:28:00,
2013-08-05 05:33:00,82.9,76.8,29.95,West,272,1.0,6.0,82,0.00,,,0.00,meteohub,2013-08-05 09:33:00,
2013-08-05 05:38:00,82.9,77.2,29.94,West,272,1.0,6.0,83,0.00,,,0.00,meteohub,2013-08-05 09:38:00,
2013-08-05 05:43:00,82.9,77.2,29.94,West,272,1.0,5.0,83,0.00,,,0.00,meteohub,2013-08-05 09:43:00,
2013-08-05 05:49:00,82.8,77.0,29.94,West,272,2.0,5.0,83,0.00,,,0.00,meteohub,2013-08-05 09:49:00,
2013-08-05 05:54:00,82.8,77.0,29.94,West,272,2.0,6.0,83,0.00,,,0.00,meteohub,2013-08-05 09:54:00,
2013-08-05 05:59:00,82.8,77.0,29.95,West,272,3.0,6.0,83,0.00,,,0.00,meteohub,2013-08-05 09:59:00,
2013-08-05 06:05:00,82.8,77.0,29.95,NW,315,3.0,6.0,83,0.00,,,0.00,meteohub,2013-08-05 10:05:00,
2013-08-05 06:11:00,82.9,77.2,29.95,NW,315,0.0,6.0,83,0.00,,,0.00,meteohub,2013-08-05 10:11:00,
2013-08-05 06:16:00,82.8,77.4,29.95,NW,315,1.0,6.0,84,0.00,,,0.00,meteohub,2013-08-05 10:16:00,
2013-08-05 06:22:00,82.8,77.4,29.95,NW,315,1.0,4.0,84,0.00,,,0.00,meteohub,2013-08-05 10:22:00,
2013-08-05 06:27:00,82.8,77.0,29.95,NW,315,0.0,5.0,83,0.00,,,0.00,meteohub,2013-08-05 10:27:00,
2013-08-05 06:32:00,82.8,77.0,29.95,NW,315,2.0,5.0,83,0.00,,,0.00,meteohub,2013-08-05 10:32:00,
2013-08-05 06:37:00,82.8,77.0,29.95,NW,315,1.0,5.0,83,0.00,,,0.00,meteohub,2013-08-05 10:37:00,
2013-08-05 06:42:00,82.8,77.0,29.96,NW,315,1.0,4.0,83,0.00,,,0.00,meteohub,2013-08-05 10:42:00,
2013-08-05 06:48:00,82.8,77.0,29.96,NW,304,3.0,4.0,83,0.00,,,0.00,meteohub,2013-08-05 10:48:00,
2013-08-05 06:53:00,82.9,77.2,29.96,WNW,303,2.0,4.0,83,0.00,,,0.00,meteohub,2013-08-05 10:53:00,
2013-08-05 06:58:00,82.9,77.2,29.96,WNW,303,2.0,5.0,83,0.00,,,0.00,meteohub,2013-08-05 10:58:00,
2013-08-05 07:03:00,82.9,76.8,29.96,WNW,302,2.0,5.0,82,0.00,,,0.00,meteohub,2013-08-05 11:03:00,
2013-08-05 07:08:00,82.9,77.2,29.96,WNW,302,2.0,4.0,83,0.00,,,0.00,meteohub,2013-08-05 11:08:00,
2013-08-05 07:13:00,82.9,77.2,29.96,WNW,302,1.0,5.0,83,0.00,,,0.00,meteohub,2013-08-05 11:13:00,
2013-08-05 07:18:00,82.9,77.2,29.96,WNW,302,3.0,5.0,83,0.00,,,0.00,meteohub,2013-08-05 11:18:00,
2013-08-05 07:24:00,82.9,77.2,29.96,WNW,302,0.0,5.0,83,0.00,,,0.00,meteohub,2013-08-05 11:24:00,
2013-08-05 07:29:00,83.1,77.4,29.96,WNW,302,1.0,3.0,83,0.00,,,0.00,meteohub,2013-08-05 11:29:00,
2013-08-05 07:34:00,83.1,77.4,29.96,WNW,302,2.0,4.0,83,0.00,,,0.00,meteohub,2013-08-05 11:34:00,
2013-08-05 07:39:00,83.5,77.7,29.96,WNW,285,2.0,4.0,83,0.00,,,0.00,meteohub,2013-08-05 11:39:00,
2013-08-05 07:45:00,83.8,78.1,29.97,West,281,1.0,6.0,83,0.00,,,0.00,meteohub,2013-08-05 11:45:00,
2013-08-05 07:50:00,84.0,77.9,29.97,West,281,2.0,6.0,82,0.00,,,0.00,meteohub,2013-08-05 11:50:00,
2013-08-05 07:55:00,84.0,77.9,29.97,West,281,1.0,6.0,82,0.00,,,0.00,meteohub,2013-08-05 11:55:00,
2013-08-05 08:01:00,84.4,78.3,29.97,West,281,3.0,5.0,82,0.00,,,0.00,meteohub,2013-08-05 12:01:00,
2013-08-05 08:06:00,84.7,78.6,29.97,WNW,292,1.0,7.0,82,0.00,,,0.00,meteohub,2013-08-05 12:06:00,
2013-08-05 08:11:00,85.1,78.3,29.97,WNW,297,4.0,7.0,80,0.00,,,0.00,meteohub,2013-08-05 12:11:00,
2013-08-05 08:16:00,85.6,78.4,29.98,WNW,297,3.0,7.0,79,0.00,,,0.00,meteohub,2013-08-05 12:16:00,
2013-08-05 08:22:00,86.2,79.0,29.98,WNW,294,4.0,7.0,79,0.00,,,0.00,meteohub,2013-08-05 12:22:00,
2013-08-05 08:27:00,86.5,78.8,29.98,WNW,294,2.0,7.0,78,0.00,,,0.00,meteohub,2013-08-05 12:27:00,
2013-08-05 08:32:00,87.1,78.6,29.98,WNW,294,3.0,6.0,76,0.00,,,0.00,meteohub,2013-08-05 12:32:00,
2013-08-05 08:37:00,87.4,79.0,29.98,WNW,293,2.0,5.0,76,0.00,,,0.00,meteohub,2013-08-05 12:37:00,
2013-08-05 08:42:00,87.6,78.3,29.97,WNW,292,4.0,7.0,74,0.00,,,0.00,meteohub,2013-08-05 12:42:00,
2013-08-05 08:48:00,88.0,79.0,29.97,WNW,292,3.0,7.0,75,0.00,,,0.00,meteohub,2013-08-05 12:48:00,
2013-08-05 08:53:00,88.0,78.6,29.97,WNW,292,4.0,7.0,74,0.00,,,0.00,meteohub,2013-08-05 12:53:00,
2013-08-05 08:58:00,87.4,79.0,29.98,NW,310,1.0,8.0,76,0.00,,,0.00,meteohub,2013-08-05 12:58:00,
2013-08-05 09:04:00,87.1,79.0,29.98,NW,310,2.0,8.0,77,0.00,,,0.00,meteohub,2013-08-05 13:04:00,
2013-08-05 09:09:00,86.7,78.3,29.98,West,259,3.0,8.0,76,0.00,,,0.00,meteohub,2013-08-05 13:09:00,
2013-08-05 09:14:00,86.5,77.7,29.99,West,272,5.0,8.0,75,0.00,,,0.00,meteohub,2013-08-05 13:14:00,
2013-08-05 09:20:00,87.4,78.1,29.99,WNW,283,2.0,8.0,74,0.00,,,0.00,meteohub,2013-08-05 13:20:00,
2013-08-05 09:25:00,88.0,77.9,29.99,West,275,6.0,7.0,72,0.00,,,0.00,meteohub,2013-08-05 13:25:00,
2013-08-05 09:30:00,88.0,78.3,29.99,WNW,292,1.0,7.0,73,0.00,,,0.00,meteohub,2013-08-05 13:30:00,
2013-08-05 09:37:00,88.0,78.3,29.99,WNW,298,7.0,9.0,73,0.00,,,0.00,meteohub,2013-08-05 13:37:00,
2013-08-05 09:42:00,89.1,78.4,29.99,WNW,284,3.0,9.0,71,0.00,,,0.00,meteohub,2013-08-05 13:42:00,
2013-08-05 09:47:00,90.0,78.8,29.99,WNW,296,5.0,9.0,70,0.00,,,0.00,meteohub,2013-08-05 13:47:00,
2013-08-05 09:52:00,90.5,78.4,29.99,WNW,298,4.0,9.0,68,0.00,,,0.00,meteohub,2013-08-05 13:52:00,
2013-08-05 09:58:00,90.3,78.8,29.99,WNW,300,3.0,9.0,69,0.00,,,0.00,meteohub,2013-08-05 13:58:00,
2013-08-05 10:03:00,89.4,78.8,29.99,West,264,2.0,9.0,71,0.00,,,0.00,meteohub,2013-08-05 14:03:00,
2013-08-05 10:08:00,88.2,77.9,29.99,WNW,296,4.0,9.0,72,0.00,,,0.00,meteohub,2013-08-05 14:08:00,
2013-08-05 10:13:00,87.8,78.4,29.99,WNW,303,1.0,9.0,74,0.00,,,0.00,meteohub,2013-08-05 14:13:00,
2013-08-05 10:18:00,88.5,78.3,29.99,WNW,282,5.0,7.0,72,0.00,,,0.00,meteohub,2013-08-05 14:18:00,
2013-08-05 10:24:00,89.8,79.2,29.99,WNW,288,4.0,7.0,71,0.00,,,0.00,meteohub,2013-08-05 14:24:00,
2013-08-05 10:29:00,90.3,78.3,29.99,WNW,282,2.0,7.0,68,0.00,,,0.00,meteohub,2013-08-05 14:29:00,
2013-08-05 10:34:00,90.9,78.4,29.99,NW,317,1.0,8.0,67,0.00,,,0.00,meteohub,2013-08-05 14:34:00,
2013-08-05 10:39:00,91.4,78.4,29.99,WNW,302,4.0,8.0,66,0.00,,,0.00,meteohub,2013-08-05 14:39:00,
2013-08-05 10:45:00,91.4,78.4,29.99,WNW,295,4.0,7.0,66,0.00,,,0.00,meteohub,2013-08-05 14:45:00,
2013-08-05 10:50:00,91.0,78.1,29.99,WNW,293,1.0,7.0,66,0.00,,,0.00,meteohub,2013-08-05 14:50:00,
2013-08-05 10:55:00,91.8,78.8,29.99,NW,319,3.0,7.0,66,0.00,,,0.00,meteohub,2013-08-05 14:55:00,
2013-08-05 11:01:00,91.9,79.0,29.99,West,266,6.0,8.0,66,0.00,,,0.00,meteohub,2013-08-05 15:01:00,
2013-08-05 11:06:00,91.6,78.6,29.99,WNW,288,2.0,9.0,66,0.00,,,0.00,meteohub,2013-08-05 15:06:00,
2013-08-05 11:11:00,91.9,78.4,29.99,WNW,293,4.0,9.0,65,0.00,,,0.00,meteohub,2013-08-05 15:11:00,
2013-08-05 11:17:00,92.1,78.6,29.99,West,265,5.0,9.0,65,0.00,,,0.00,meteohub,2013-08-05 15:17:00,
2013-08-05 11:22:00,92.1,78.6,29.99,NW,307,6.0,8.0,65,0.00,,,0.00,meteohub,2013-08-05 15:22:00,
2013-08-05 11:26:00,92.7,79.2,29.99,WNW,291,2.0,10.0,65,0.00,,,0.00,meteohub,2013-08-05 15:26:00,
2013-08-05 11:31:00,92.7,79.2,29.98,West,280,2.0,10.0,65,0.00,,,0.00,meteohub,2013-08-05 15:31:00,
2013-08-05 11:37:00,92.5,79.5,29.98,West,275,4.0,7.0,66,0.00,,,0.00,meteohub,2013-08-05 15:37:00,
2013-08-05 11:42:00,92.1,79.2,29.98,WSW,252,4.0,11.0,66,0.00,,,0.00,meteohub,2013-08-05 15:42:00,
2013-08-05 11:48:00,92.3,78.8,29.98,WNW,303,8.0,12.0,65,0.00,,,0.00,meteohub,2013-08-05 15:48:00,
2013-08-05 11:53:00,92.1,78.6,29.98,WSW,248,6.0,12.0,65,0.00,,,0.00,meteohub,2013-08-05 15:53:00,
2013-08-05 11:58:00,92.1,79.5,29.98,WSW,258,1.0,12.0,67,0.00,,,0.00,meteohub,2013-08-05 15:58:00,
2013-08-05 12:04:00,91.8,79.7,29.98,WSW,248,8.0,11.0,68,0.00,,,0.00,meteohub,2013-08-05 16:04:00,
2013-08-05 12:09:00,91.9,79.3,29.98,West,265,5.0,8.0,67,0.00,,,0.00,meteohub,2013-08-05 16:09:00,
2013-08-05 12:15:00,92.5,79.0,29.98,WNW,294,3.0,10.0,65,0.00,,,0.00,meteohub,2013-08-05 16:15:00,
2013-08-05 12:20:00,91.8,78.8,29.98,WNW,297,5.0,10.0,66,0.00,,,0.00,meteohub,2013-08-05 16:20:00,
2013-08-05 12:25:00,92.1,79.5,29.98,WNW,300,5.0,9.0,67,0.00,,,0.00,meteohub,2013-08-05 16:25:00,
2013-08-05 12:30:00,92.7,79.7,29.98,West,279,3.0,9.0,66,0.00,,,0.00,meteohub,2013-08-05 16:30:00,
2013-08-05 12:36:00,92.7,78.6,29.98,WNW,288,3.0,8.0,64,0.00,,,0.00,meteohub,2013-08-05 16:36:00,
2013-08-05 12:42:00,92.7,79.2,29.98,West,281,3.0,9.0,65,0.00,,,0.00,meteohub,2013-08-05 16:42:00,
2013-08-05 12:47:00,93.4,78.8,29.98,West,267,5.0,9.0,63,0.00,,,0.00,meteohub,2013-08-05 16:47:00,
2013-08-05 12:52:00,93.0,79.0,29.97,West,264,5.0,9.0,64,0.00,,,0.00,meteohub,2013-08-05 16:52:00,
2013-08-05 12:58:00,93.7,78.8,29.97,NW,315,2.0,9.0,62,0.00,,,0.00,meteohub,2013-08-05 16:58:00,
2013-08-05 13:03:00,93.6,79.0,29.97,West,261,6.0,10.0,63,0.00,,,0.00,meteohub,2013-08-05 17:03:00,
2013-08-05 13:08:00,93.2,78.3,29.97,WNW,293,7.0,10.0,62,0.00,,,0.00,meteohub,2013-08-05 17:08:00,
2013-08-05 13:14:00,93.2,78.8,29.97,WNW,297,3.0,10.0,63,0.00,,,0.00,meteohub,2013-08-05 17:14:00,
2013-08-05 13:19:00,94.1,78.6,29.96,NNW,333,1.0,9.0,61,0.00,,,0.00,meteohub,2013-08-05 17:19:00,
2013-08-05 13:24:00,94.5,77.9,29.97,WSW,247,5.0,9.0,59,0.00,,,0.00,meteohub,2013-08-05 17:24:00,
2013-08-05 13:30:00,94.1,78.6,29.96,West,277,6.0,9.0,61,0.00,,,0.00,meteohub,2013-08-05 17:30:00,
2013-08-05 13:35:00,94.3,77.7,29.96,WNW,296,3.0,9.0,59,0.00,,,0.00,meteohub,2013-08-05 17:35:00,
2013-08-05 13:42:00,94.1,78.6,29.96,WNW,294,3.0,10.0,61,0.00,,,0.00,meteohub,2013-08-05 17:42:00,
2013-08-05 13:47:00,94.6,79.2,29.96,WNW,297,5.0,10.0,61,0.00,,,0.00,meteohub,2013-08-05 17:47:00,
2013-08-05 13:52:00,94.3,78.8,29.96,West,263,3.0,12.0,61,0.00,,,0.00,meteohub,2013-08-05 17:52:00,
2013-08-05 13:56:00,94.3,78.8,29.95,West,276,7.0,12.0,61,0.00,,,0.00,meteohub,2013-08-05 17:56:00,
2013-08-05 14:02:00,94.3,78.8,29.95,WSW,250,4.0,10.0,61,0.00,,,0.00,meteohub,2013-08-05 18:02:00,
2013-08-05 14:07:00,94.3,77.7,29.95,NW,323,5.0,10.0,59,0.00,,,0.00,meteohub,2013-08-05 18:07:00,
2013-08-05 14:12:00,94.3,77.7,29.95,WNW,294,7.0,12.0,59,0.00,,,0.00,meteohub,2013-08-05 18:12:00,
2013-08-05 14:17:00,93.9,76.8,29.95,WNW,294,3.0,12.0,58,0.00,,,0.00,meteohub,2013-08-05 18:17:00,
2013-08-05 14:22:00,93.9,79.3,29.94,West,260,5.0,12.0,63,0.00,,,0.00,meteohub,2013-08-05 18:22:00,
2013-08-05 14:27:00,93.4,77.4,29.94,WSW,243,3.0,10.0,60,0.00,,,0.00,meteohub,2013-08-05 18:27:00,
2013-08-05 14:33:00,92.8,77.4,29.94,WNW,292,5.0,11.0,61,0.00,,,0.00,meteohub,2013-08-05 18:33:00,
2013-08-05 14:38:00,92.8,78.4,29.94,WNW,290,7.0,11.0,63,0.00,,,0.00,meteohub,2013-08-05 18:38:00,
2013-08-05 14:44:00,93.4,78.4,29.94,West,279,3.0,11.0,62,0.00,,,0.00,meteohub,2013-08-05 18:44:00,
2013-08-05 14:49:00,93.2,78.3,29.93,WNW,283,5.0,10.0,62,0.00,,,0.00,meteohub,2013-08-05 18:49:00,
2013-08-05 14:54:00,92.8,77.4,29.94,WNW,290,6.0,9.0,61,0.00,,,0.00,meteohub,2013-08-05 18:54:00,
2013-08-05 14:59:00,93.0,78.1,29.93,NW,325,5.0,10.0,62,0.00,,,0.00,meteohub,2013-08-05 18:59:00,
2013-08-05 15:05:00,93.4,77.4,29.93,WNW,294,4.0,10.0,60,0.00,,,0.00,meteohub,2013-08-05 19:05:00,
2013-08-05 15:10:00,93.0,78.6,29.93,NW,310,5.0,11.0,63,0.00,,,0.00,meteohub,2013-08-05 19:10:00,
2013-08-05 15:15:00,92.8,77.9,29.93,NW,307,4.0,11.0,62,0.00,,,0.00,meteohub,2013-08-05 19:15:00,
2013-08-05 15:20:00,92.1,78.3,29.93,West,273,8.0,11.0,64,0.00,,,0.00,meteohub,2013-08-05 19:20:00,
2013-08-05 15:26:00,93.0,77.5,29.92,NW,309,4.0,11.0,61,0.00,,,0.00,meteohub,2013-08-05 19:26:00,
2013-08-05 15:32:00,93.4,77.9,29.92,WNW,295,3.0,10.0,61,0.00,,,0.00,meteohub,2013-08-05 19:32:00,
2013-08-05 15:37:00,93.6,77.5,29.92,WSW,249,7.0,11.0,60,0.00,,,0.00,meteohub,2013-08-05 19:37:00,
2013-08-05 15:42:00,93.4,78.4,29.92,West,275,5.0,11.0,62,0.00,,,0.00,meteohub,2013-08-05 19:42:00,
2013-08-05 15:47:00,93.2,78.3,29.92,West,259,2.0,11.0,62,0.00,,,0.00,meteohub,2013-08-05 19:47:00,
2013-08-05 15:52:00,93.0,78.1,29.92,West,263,4.0,11.0,62,0.00,,,0.00,meteohub,2013-08-05 19:52:00,
2013-08-05 15:57:00,93.0,77.5,29.92,WNW,299,6.0,11.0,61,0.00,,,0.00,meteohub,2013-08-05 19:57:00,
2013-08-05 16:02:00,92.8,78.4,29.92,West,273,6.0,11.0,63,0.00,,,0.00,meteohub,2013-08-05 20:02:00,
2013-08-05 16:08:00,93.4,77.9,29.92,WNW,294,7.0,11.0,61,0.00,,,0.00,meteohub,2013-08-05 20:08:00,
2013-08-05 16:14:00,93.2,77.2,29.93,West,277,5.0,10.0,60,0.00,,,0.00,meteohub,2013-08-05 20:14:00,
2013-08-05 16:19:00,92.8,77.9,29.92,WNW,299,5.0,11.0,62,0.00,,,0.00,meteohub,2013-08-05 20:19:00,
2013-08-05 16:24:00,92.8,77.9,29.92,WNW,294,4.0,11.0,62,0.00,,,0.00,meteohub,2013-08-05 20:24:00,
2013-08-05 16:30:00,92.7,78.3,29.92,WNW,290,6.0,11.0,63,0.00,,,0.00,meteohub,2013-08-05 20:30:00,
2013-08-05 16:35:00,92.5,78.1,29.92,WNW,302,4.0,10.0,63,0.00,,,0.00,meteohub,2013-08-05 20:35:00,
2013-08-05 16:41:00,92.7,76.3,29.92,NW,317,4.0,10.0,59,0.00,,,0.00,meteohub,2013-08-05 20:41:00,
2013-08-05 16:46:00,92.3,76.8,29.92,NW,308,6.0,10.0,61,0.00,,,0.00,meteohub,2013-08-05 20:46:00,
2013-08-05 16:51:00,92.1,76.6,29.92,WNW,288,7.0,10.0,61,0.00,,,0.00,meteohub,2013-08-05 20:51:00,
2013-08-05 16:57:00,91.2,77.7,29.91,West,272,4.0,10.0,65,0.00,,,0.00,meteohub,2013-08-05 20:57:00,
2013-08-05 17:02:00,90.1,77.2,29.91,WNW,292,4.0,9.0,66,0.00,,,0.00,meteohub,2013-08-05 21:02:00,
2013-08-05 17:07:00,89.4,77.0,29.91,West,279,4.0,10.0,67,0.00,,,0.00,meteohub,2013-08-05 21:07:00,
2013-08-05 17:12:00,89.1,77.5,29.91,West,265,2.0,10.0,69,0.00,,,0.00,meteohub,2013-08-05 21:12:00,
2013-08-05 17:18:00,88.9,77.9,29.91,WNW,292,4.0,9.0,70,0.00,,,0.00,meteohub,2013-08-05 21:18:00,
2013-08-05 17:23:00,88.9,77.4,29.91,WNW,284,7.0,9.0,69,0.00,,,0.00,meteohub,2013-08-05 21:23:00,
2013-08-05 17:28:00,88.3,77.7,29.91,West,275,4.0,9.0,71,0.00,,,0.00,meteohub,2013-08-05 21:28:00,
2013-08-05 17:33:00,88.3,77.7,29.91,West,272,5.0,9.0,71,0.00,,,0.00,meteohub,2013-08-05 21:33:00,
2013-08-05 17:39:00,88.3,77.7,29.91,West,267,8.0,9.0,71,0.00,,,0.00,meteohub,2013-08-05 21:39:00,
2013-08-05 17:44:00,88.3,77.4,29.91,WSW,248,12.0,12.0,70,0.00,,,0.00,meteohub,2013-08-05 21:44:00,
2013-08-05 17:49:00,88.5,77.9,29.91,West,267,4.0,12.0,71,0.00,,,0.00,meteohub,2013-08-05 21:49:00,
2013-08-05 17:54:00,89.1,77.5,29.90,WNW,302,4.0,12.0,69,0.00,,,0.00,meteohub,2013-08-05 21:54:00,
2013-08-05 18:00:00,89.2,77.4,29.90,West,263,7.0,12.0,68,0.00,,,0.00,meteohub,2013-08-05 22:00:00,
2013-08-05 18:05:00,88.9,76.1,29.90,WNW,283,4.0,9.0,66,0.00,,,0.00,meteohub,2013-08-05 22:05:00,
2013-08-05 18:10:00,88.5,76.1,29.91,West,277,4.0,10.0,67,0.00,,,0.00,meteohub,2013-08-05 22:10:00,
2013-08-05 18:15:00,88.3,75.9,29.91,WNW,286,4.0,10.0,67,0.00,,,0.00,meteohub,2013-08-05 22:15:00,
2013-08-05 18:20:00,88.5,76.1,29.90,WNW,282,3.0,11.0,67,0.00,,,0.00,meteohub,2013-08-05 22:20:00,
2013-08-05 18:25:00,89.2,77.4,29.90,West,260,7.0,11.0,68,0.00,,,0.00,meteohub,2013-08-05 22:25:00,
2013-08-05 18:30:00,89.8,77.4,29.91,West,275,4.0,9.0,67,0.00,,,0.00,meteohub,2013-08-05 22:30:00,
2013-08-05 18:36:00,89.8,77.4,29.91,WNW,292,2.0,10.0,67,0.00,,,0.00,meteohub,2013-08-05 22:36:00,
2013-08-05 18:41:00,89.8,76.8,29.91,West,277,6.0,10.0,66,0.00,,,0.00,meteohub,2013-08-05 22:41:00,
2013-08-05 18:46:00,89.1,77.2,29.91,WNW,292,4.0,11.0,68,0.00,,,0.00,meteohub,2013-08-05 22:46:00,
2013-08-05 18:52:00,88.5,77.5,29.91,West,267,4.0,11.0,70,0.00,,,0.00,meteohub,2013-08-05 22:52:00,
2013-08-05 18:57:00,88.0,77.0,29.91,WNW,294,3.0,11.0,70,0.00,,,0.00,meteohub,2013-08-05 22:57:00,
2013-08-05 19:03:00,87.4,75.9,29.92,West,260,4.0,9.0,69,0.00,,,0.00,meteohub,2013-08-05 23:03:00,
2013-08-05 19:08:00,87.3,76.3,29.91,WSW,253,2.0,9.0,70,0.00,,,0.00,meteohub,2013-08-05 23:08:00,
2013-08-05 19:13:00,87.1,77.0,29.92,West,263,4.0,7.0,72,0.00,,,0.00,meteohub,2013-08-05 23:13:00,
2013-08-05 19:19:00,87.1,77.4,29.92,West,268,2.0,8.0,73,0.00,,,0.00,meteohub,2013-08-05 23:19:00,
2013-08-05 19:24:00,86.7,76.1,29.93,WNW,294,5.0,8.0,71,0.00,,,0.00,meteohub,2013-08-05 23:24:00,
2013-08-05 19:29:00,86.7,77.0,29.93,WNW,293,2.0,8.0,73,0.00,,,0.00,meteohub,2013-08-05 23:29:00,
2013-08-05 19:34:00,86.5,77.2,29.93,West,276,3.0,7.0,74,0.00,,,0.00,meteohub,2013-08-05 23:34:00,
2013-08-05 19:39:00,86.5,77.7,29.93,West,264,1.0,8.0,75,0.00,,,0.00,meteohub,2013-08-05 23:39:00,
2013-08-05 19:44:00,86.5,77.7,29.94,WNW,298,3.0,8.0,75,0.00,,,0.00,meteohub,2013-08-05 23:44:00,
2013-08-05 19:50:00,86.4,77.9,29.94,NW,314,5.0,7.0,76,0.00,,,0.00,meteohub,2013-08-05 23:50:00,
2013-08-05 19:57:00,86.2,77.7,29.93,West,259,5.0,7.0,76,0.00,,,0.00,meteohub,2013-08-05 23:57:00,
2013-08-05 20:02:00,86.0,77.9,29.94,WNW,288,2.0,7.0,77,0.00,,,0.00,meteohub,2013-08-06 00:02:00,
2013-08-05 20:07:00,85.8,77.7,29.94,West,267,1.0,6.0,77,0.00,,,0.00,meteohub,2013-08-06 00:07:00,
2013-08-05 20:12:00,85.6,77.9,29.94,West,265,3.0,6.0,78,0.00,,,0.00,meteohub,2013-08-06 00:12:00,
2013-08-05 20:18:00,85.6,78.4,29.94,West,274,3.0,6.0,79,0.00,,,0.00,meteohub,2013-08-06 00:18:00,
2013-08-05 20:23:00,85.5,78.3,29.94,West,271,6.0,7.0,79,0.00,,,0.00,meteohub,2013-08-06 00:23:00,
2013-08-05 20:28:00,85.5,78.3,29.93,West,269,1.0,7.0,79,0.00,,,0.00,meteohub,2013-08-06 00:28:00,
2013-08-05 20:34:00,85.5,78.3,29.94,West,259,4.0,7.0,79,0.00,,,0.00,meteohub,2013-08-06 00:34:00,
2013-08-05 20:39:00,85.5,78.3,29.93,West,265,4.0,8.0,79,0.00,,,0.00,meteohub,2013-08-06 00:39:00,
2013-08-05 20:44:00,85.5,78.3,29.94,West,267,3.0,8.0,79,0.00,,,0.00,meteohub,2013-08-06 00:44:00,
2013-08-05 20:50:00,85.3,78.4,29.93,WNW,296,2.0,8.0,80,0.00,,,0.00,meteohub,2013-08-06 00:50:00,
2013-08-05 20:55:00,85.3,78.1,29.94,West,261,3.0,6.0,79,0.00,,,0.00,meteohub,2013-08-06 00:55:00,
2013-08-05 21:01:00,85.3,78.1,29.94,West,263,0.0,6.0,79,0.00,,,0.00,meteohub,2013-08-06 01:01:00,
2013-08-05 21:06:00,85.1,77.9,29.94,West,262,2.0,5.0,79,0.00,,,0.00,meteohub,2013-08-06 01:06:00,
2013-08-05 21:12:00,85.1,77.9,29.94,West,267,5.0,5.0,79,0.00,,,0.00,meteohub,2013-08-06 01:12:00,
2013-08-05 21:17:00,84.9,78.1,29.94,West,262,1.0,7.0,80,0.00,,,0.00,meteohub,2013-08-06 01:17:00,
2013-08-05 21:23:00,85.1,78.3,29.94,West,275,2.0,7.0,80,0.00,,,0.00,meteohub,2013-08-06 01:23:00,
2013-08-05 21:28:00,84.9,78.1,29.94,West,277,3.0,7.0,80,0.00,,,0.00,meteohub,2013-08-06 01:28:00,
2013-08-05 21:34:00,84.9,78.1,29.94,West,271,2.0,7.0,80,0.00,,,0.00,meteohub,2013-08-06 01:34:00,
2013-08-05 21:39:00,84.9,78.1,29.94,West,274,2.0,7.0,80,0.00,,,0.00,meteohub,2013-08-06 01:39:00,
2013-08-05 21:44:00,84.7,78.3,29.94,West,273,0.0,7.0,81,0.00,,,0.00,meteohub,2013-08-06 01:44:00,
2013-08-05 21:49:00,84.7,78.3,29.94,WSW,253,3.0,7.0,81,0.00,,,0.00,meteohub,2013-08-06 01:49:00,
2013-08-05 21:54:00,84.7,78.3,29.95,West,281,3.0,7.0,81,0.00,,,0.00,meteohub,2013-08-06 01:54:00,
2013-08-05 22:00:00,84.6,78.4,29.95,WNW,301,2.0,7.0,82,0.00,,,0.00,meteohub,2013-08-06 02:00:00,
2013-08-05 22:05:00,84.6,78.1,29.95,West,267,3.0,7.0,81,0.00,,,0.00,meteohub,2013-08-06 02:05:00,
2013-08-05 22:10:00,84.6,78.4,29.95,WNW,290,3.0,7.0,82,0.00,,,0.00,meteohub,2013-08-06 02:10:00,
2013-08-05 22:15:00,84.6,78.4,29.95,West,281,4.0,7.0,82,0.00,,,0.00,meteohub,2013-08-06 02:15:00,
2013-08-05 22:21:00,84.4,77.9,29.95,West,272,1.0,7.0,81,0.00,,,0.00,meteohub,2013-08-06 02:21:00,
2013-08-05 22:26:00,84.6,78.1,29.95,WSW,258,1.0,7.0,81,0.00,,,0.00,meteohub,2013-08-06 02:26:00,
2013-08-05 22:31:00,84.4,77.5,29.95,WNW,290,2.0,7.0,80,0.00,,,0.00,meteohub,2013-08-06 02:31:00,
2013-08-05 22:37:00,84.4,77.9,29.95,WNW,290,1.0,7.0,81,0.00,,,0.00,meteohub,2013-08-06 02:37:00,
2013-08-05 22:42:00,84.4,77.5,29.95,West,274,3.0,5.0,80,0.00,,,0.00,meteohub,2013-08-06 02:42:00,
2013-08-05 22:47:00,84.4,77.5,29.95,WNW,292,4.0,6.0,80,0.00,,,0.00,meteohub,2013-08-06 02:47:00,
2013-08-05 22:53:00,84.4,77.5,29.95,West,273,0.0,6.0,80,0.00,,,0.00,meteohub,2013-08-06 02:53:00,
2013-08-05 22:58:00,84.4,77.9,29.95,West,273,2.0,6.0,81,0.00,,,0.00,meteohub,2013-08-06 02:58:00,
2013-08-05 23:03:00,84.4,77.9,29.95,West,273,1.0,6.0,81,0.00,,,0.00,meteohub,2013-08-06 03:03:00,
2013-08-05 23:09:00,84.4,77.9,29.95,West,273,2.0,4.0,81,0.00,,,0.00,meteohub,2013-08-06 03:09:00,
2013-08-05 23:14:00,84.4,78.3,29.94,West,277,1.0,4.0,82,0.00,,,0.00,meteohub,2013-08-06 03:14:00,
2013-08-05 23:20:00,84.4,78.3,29.94,West,272,2.0,5.0,82,0.00,,,0.00,meteohub,2013-08-06 03:20:00,
2013-08-05 23:25:00,84.4,78.3,29.95,West,272,2.0,5.0,82,0.00,,,0.00,meteohub,2013-08-06 03:25:00,
2013-08-05 23:31:00,84.4,78.3,29.95,West,272,0.0,5.0,82,0.00,,,0.00,meteohub,2013-08-06 03:31:00,
2013-08-05 23:36:00,84.4,78.3,29.94,West,272,1.0,4.0,82,0.00,,,0.00,meteohub,2013-08-06 03:36:00,
2013-08-05 23:41:00,84.4,78.3,29.95,West,272,0.0,4.0,82,0.00,,,0.00,meteohub,2013-08-06 03:41:00,
2013-08-05 23:46:00,84.4,78.6,29.94,West,272,1.0,4.0,83,0.00,,,0.00,meteohub,2013-08-06 03:46:00,
2013-08-05 23:51:00,84.4,78.6,29.94,West,272,1.0,3.0,83,0.00,,,0.00,meteohub,2013-08-06 03:51:00,
2013-08-05 23:57:00,84.4,78.6,29.95,West,272,1.0,3.0,83,0.00,,,0.00,meteohub,2013-08-06 03:57:00,